User: anonymous   Login
Location: Unspecified
(0.0000°N, 0.0000°E)
Time: 17:52:41
(UTC+02:00)
Language:

Cosmos 1300 - Orbit

View from above orbital plane
View from above orbital plane
View from above satellite
View from above satellite

Ground track
Ground track

The orbit data is extracted from the following two-line orbital elements,

1 12785U 81082A   18173.85502041 +.00000659 +00000-0 +31603-4 0  9994
2 12785 082.5046 066.7268 0002618 067.0096 338.0853 15.17172248007814
Epoch (UTC): 22 June 2018 20:31:13
Eccentricity: 0.0002618
inclination: 82.5046°
perigee height: 512 km
apogee height: 516 km
right ascension of ascending node: 66.7268°
argument of perigee: 67.0096°
revolutions per day: 15.17172248
mean anomaly at epoch: 338.0853°
orbit number at epoch: 781

The dashed part of the orbit path shows where the satellite is in the earth's shadow,  

DLR